Caldwell, NJ

7:39 AM EDT on March 29, 2017 (GMT -0400)
Essex County

Weather History for KCDW - April, 2014

Change the Weather History Date:

Thursday, April 10, 2014

  Actual Average Record
Temperature  
Mean Temperature 47 °F -  
Max Temperature 64 °F 56 °F 82 °F (1991)
Min Temperature 30 °F 33 °F 17 °F (1985)
Degree Days  
Heating Degree Days 18    
Moisture  
Dew Point 26 °F    
Average Humidity 40    
Maximum Humidity 69    
Minimum Humidity 26    
Precipitation  
Precipitation 0.00 in - - ()
Sea Level Pressure  
Sea Level Pressure 30.12 in    
Wind  
Wind Speed 4 mph (SW)    
Max Wind Speed 13 mph    
Max Gust Speed 24 mph    
Visibility 10 miles    
Events      
Averages and records for this station are not official NWS values.
T = Trace of Precipitation, MM = Missing Value Source: NWS Daily Summary

Daily Weather History Graph

Daily Weather History Graph

Search for Another Location

Airport or City:

Trip Planner

Search our weather history database for the weather conditions in past years. The results will help you decide how hot, cold, wet, or windy it might be!

Date:

Astronomy

Apr. 10, 2014 Rise Set
Actual Time 6:26 AM EDT 7:31 PM EDT
Civil Twilight 5:57 AM EDT 7:59 PM EDT
Nautical Twilight 5:24 AM EDT 8:33 PM EDT
Astronomical Twilight 4:49 AM EDT 9:08 PM EDT
Moon 3:11 PM EDT (4/10) 3:49 AM EDT (4/10)
Length of Visible Light 14h 01m
Length of Day
13h 05m
Waxing Gibbous, 79% of the Moon is Illuminated
Apr 10
Waxing Gibbous
Apr 15
Full
Apr 22
Last Quarter
Apr 29
New
May 6
First Quarter

Hourly Weather History & Observations

Time (EDT) Temp. Windchill Dew Point Humidity Pressure Visibility Wind Dir Wind Speed Gust Speed Precip Events Conditions
12:53 AM 43.0 °F - 14.0 °F 31% 30.08 in 10.0 mi Calm Calm - N/A   Clear
1:53 AM 36.0 °F - 21.0 °F 55% 30.09 in 10.0 mi Calm Calm - N/A   Clear
2:53 AM 36.0 °F - 19.9 °F 52% 30.10 in 10.0 mi Calm Calm - N/A   Clear
3:53 AM 34.0 °F - 21.0 °F 59% 30.12 in 10.0 mi Calm Calm - N/A   Clear
4:53 AM 32.0 °F - 21.0 °F 64% 30.14 in 10.0 mi Calm Calm - N/A   Clear
5:53 AM 30.9 °F - 21.0 °F 67% 30.16 in 10.0 mi Calm Calm - N/A   Clear
6:53 AM 32.0 °F - 23.0 °F 69% 30.19 in 10.0 mi Calm Calm - N/A   Clear
7:53 AM 37.9 °F - 24.1 °F 57% 30.22 in 10.0 mi Calm Calm - N/A   Clear
8:53 AM 46.0 °F 44.8 °F 21.0 °F 37% 30.23 in 10.0 mi Variable 3.5 mph - N/A   Clear
10:53 AM 53.1 °F - 21.0 °F 29% 30.24 in 10.0 mi SW 8.1 mph - N/A   Clear
11:53 AM 57.0 °F - 25.0 °F 29% 30.19 in 10.0 mi Variable 6.9 mph - N/A   Clear
12:53 PM 59.0 °F - 27.0 °F 29% 30.17 in 10.0 mi SW 6.9 mph - N/A   Clear
1:53 PM 61.0 °F - 28.0 °F 29% 30.14 in 10.0 mi SSW 8.1 mph 24.2 mph N/A   Clear
2:53 PM 63.0 °F - 28.9 °F 28% 30.12 in 10.0 mi SW 12.7 mph 19.6 mph N/A   Clear
3:53 PM 64.0 °F - 28.0 °F 26% 30.09 in 10.0 mi SW 9.2 mph 21.9 mph N/A   Clear
4:53 PM 64.0 °F - 28.0 °F 26% 30.06 in 10.0 mi SW 11.5 mph 20.7 mph N/A   Clear
5:53 PM 64.0 °F - 30.0 °F 28% 30.05 in 10.0 mi SSW 12.7 mph 19.6 mph N/A   Clear
6:53 PM 63.0 °F - 30.0 °F 29% 30.05 in 10.0 mi SW 10.4 mph 20.7 mph N/A   Clear
7:53 PM 62.1 °F - 30.0 °F 30% 30.06 in 10.0 mi SSW 5.8 mph - N/A   Clear
8:53 PM 59.0 °F - 33.1 °F 38% 30.06 in 10.0 mi SSW 12.7 mph 19.6 mph N/A   Clear
9:53 PM 55.9 °F - 32.0 °F 40% 30.06 in 10.0 mi Variable 6.9 mph - N/A   Clear
10:53 PM 55.9 °F - 30.9 °F 39% 30.05 in 10.0 mi SW 4.6 mph - N/A   Clear
11:53 PM 55.9 °F - 30.9 °F 39% 30.05 in 10.0 mi SW 8.1 mph - N/A   Clear